Probability
0 0 0 0 0 0 0 0 0 0 0 0 0 0 0 3 3 0 3 6 10 6 3 3 3 0 0 0 0 0 0 3 3 3 3 3 3 3 3 0 0 0 0 0
0 0 0 0 0 0 0 0 0 0 0 0 0 0 0 0 0 3 3 3 3 6 6 3 3 3 0 0 0 0 0 0 3 3 3 3 0 3 3 3 0 0 0 0
0 0 0 0 0 0 0 0 0 0 0 0 0 0 0 0 0 0 0 3 3 3 3 6 6 3 0 0 0 0 0 3 3 3 3 3 3 3 3 0 0 0 0 0
0 0 0 0 0 0 0 0 0 0 0 0 0 0 0 0 0 0 0 3 3 3 3 10 6 6 3 0 0 3 3 3 3 3 3 3 3 3 0 0 0 0 0 0
0 0 0 0 0 0 0 0 0 0 0 0 0 0 0 0 0 0 0 3 3 3 3 3 10 6 6 0 0 3 3 3 3 3 3 3 3 0 0 3 0 0 0 0
0 0 0 0 0 0 0 0 0 0 0 0 0 0 0 0 0 0 0 3 3 3 3 6 6 6 6 10 10 6 6 6 6 3 3 0 0 0 3 3 0 0 0 0
0 0 0 0 0 0 0 0 0 0 0 0 0 0 0 0 0 0 0 0 3 3 3 3 6 13 13 10 10 10 6 6 6 6 0 0 0 3 3 3 3 3 0 0
0 0 0 0 0 0 0 0 0 0 0 0 0 0 0 0 0 0 0 3 3 3 3 3 10 6 13 13 10 10 6 10 6 6 3 3 3 3 3 6 3 3 0 0
0 0 0 0 0 0 0 0 0 0 0 0 0 0 0 0 0 0 0 3 3 3 3 3 6 6 10 10 10 10 10 6 3 6 3 3 3 3 3 3 6 6 0 0
0 0 0 0 0 0 0 0 0 0 0 0 0 0 0 0 0 0 0 0 3 3 3 6 10 6 6 6 10 10 6 6 3 3 0 0 3 3 6 6 6 0 0 0
0 0 0 0 0 0 0 0 0 0 0 0 0 0 0 0 0 0 0 0 0 0 3 3 10 10 10 3 3 6 6 6 6 3 3 0 0 0 0 3 3 0 0 0
0 0 0 0 0 0 0 0 0 0 0 0 0 0 0 0 0 0 0 0 0 0 3 3 3 10 10 3 6 10 10 10 10 3 3 0 0 0 0 0 0 0 0 0
0 0 0 0 0 0 0 0 0 0 0 0 0 0 0 0 0 0 0 0 0 0 0 3 3 6 3 3 0 3 6 6 6 6 3 3 0 3 3 0 0 0 0 0
0 0 0 0 0 0 0 0 0 0 0 0 0 0 0 0 0 0 0 0 0 0 0 3 3 3 3 3 0 3 3 6 6 3 3 3 3 3 0 0 0 0 0 0
0 0 0 0 0 0 0 0 0 0 0 0 0 0 0 0 0 0 0 0 0 0 0 0 6 6 6 6 3 3 3 3 3 3 3 3 6 3 0 0 0 0 0 0
0 0 0 0 0 0 0 0 0 0 0 0 0 0 0 0 0 0 0 0 0 0 0 0 0 3 3 6 6 6 3 3 3 6 6 3 6 0 0 0 0 0 0 0
0 0 0 0 0 0 0 0 0 0 0 0 0 0 0 0 0 0 0 0 0 0 0 0 0 0 3 3 3 3 0 3 0 0 3 3 6 6 3 3 3 3 3 3
0 0 0 0 0 0 0 0 0 0 0 0 0 0 0 0 0 0 0 0 0 0 0 0 3 0 3 3 3 0 0 3 3 0 0 3 3 3 3 0 0 0 0 0
0 0 0 0 0 0 0 0 0 0 0 0 0 0 0 0 0 0 0 0 0 0 0 0 3 0 0 3 3 0 0 3 3 0 0 0 3 3 3 3 0 0 0 0
0 0 0 0 0 0 0 0 0 0 0 0 0 0 0 0 0 0 0 0 0 0 0 0 0 0 0 3 3 0 0 3 3 0 0 0 0 0 3 3 0 0 0 0
0 0 0 0 0 0 0 0 0 0 0 0 0 0 0 0 0 0 0 0 0 0 0 0 0 0 0 0 3 0 0 3 3 0 0 0 0 0 0 3 3 0 0 0
0 0 0 0 0 0 0 0 0 0 0 0 0 0 0 0 0 0 0 0 0 0 0 0 0 0 0 0 0 0 3 3 3 0 0 0 0 0 0 0 0 0 0 0
0 0 0 0 0 0 0 0 0 0 0 0 0 0 0 0 0 0 0 0 3 3 0 0 0 0 0 0 0 0 3 3 0 0 0 0 0 0 0 0 0 0 0 0
0 0 0 0 0 0 0 0 0 0 0 0 0 0 0 0 0 0 0 0 3 3 3 0 0 0 0 0 0 0 3 0 0 0 0 0 0 0 0 3 0 3 0 0
0 0 0 0 0 0 0 0 0 0 0 0 0 0 0 0 0 3 0 0 3 3 3 3 0 0 0 0 0 3 0 0 0 0 0 0 0 0 0 0 3 3 0 0
0 0 0 0 0 0 0 0 0 0 0 0 0 0 0 0 3 3 0 0 0 3 6 6 6 6 0 0 0 0 0 0 0 0 0 0 0 0 0 0 0 0 0 0
Height
5852 5854 5855 5856 5857 5858 5859 5860 5861 5862 5862 5864 5864 5865 5866 5867 5867 5868 5869 5869 5870 5871 5872 5873 5873 5874 5875 5875 5876 5877 5878 5879 5879 5880 5880 5881 5881 5882 5882 5882 5882 5882 5881 5881
5850 5851 5852 5853 5854 5856 5857 5858 5859 5860 5860 5861 5862 5863 5864 5864 5865 5866 5867 5867 5868 5869 5870 5871 5871 5872 5873 5874 5875 5875 5876 5877 5878 5878 5879 5879 5880 5880 5880 5880 5880 5880 5880 5880
5847 5849 5849 5850 5852 5853 5854 5856 5857 5858 5858 5859 5860 5861 5862 5862 5863 5864 5864 5865 5866 5867 5868 5869 5869 5870 5871 5872 5873 5874 5875 5875 5876 5877 5877 5878 5879 5879 5879 5879 5879 5879 5879 5879
5844 5845 5846 5847 5849 5850 5852 5853 5854 5855 5856 5857 5859 5860 5860 5860 5861 5861 5862 5863 5864 5865 5865 5866 5867 5868 5869 5870 5871 5872 5873 5873 5874 5875 5876 5876 5877 5877 5878 5878 5878 5878 5878 5878
5841 5842 5843 5845 5847 5848 5850 5851 5852 5853 5854 5856 5856 5858 5859 5858 5859 5859 5860 5860 5861 5862 5863 5864 5865 5865 5866 5867 5868 5869 5870 5871 5872 5873 5874 5874 5875 5876 5876 5876 5876 5876 5876 5876
5838 5839 5840 5842 5844 5845 5847 5849 5850 5851 5852 5854 5854 5855 5856 5856 5857 5857 5858 5858 5858 5859 5860 5861 5862 5863 5864 5865 5866 5867 5868 5869 5870 5871 5872 5872 5873 5874 5874 5874 5875 5875 5875 5875
5835 5836 5837 5839 5841 5843 5844 5847 5848 5849 5850 5851 5852 5852 5854 5854 5854 5855 5855 5855 5856 5857 5857 5858 5859 5860 5861 5862 5863 5864 5865 5866 5867 5868 5869 5870 5870 5871 5872 5872 5873 5873 5873 5873
5832 5833 5835 5836 5838 5840 5842 5844 5846 5847 5847 5848 5848 5849 5851 5851 5851 5852 5852 5852 5853 5854 5854 5855 5856 5857 5858 5859 5860 5861 5862 5863 5864 5865 5866 5867 5868 5868 5869 5870 5870 5871 5871 5871
5828 5830 5831 5833 5835 5837 5838 5840 5842 5843 5844 5845 5845 5847 5848 5848 5848 5849 5849 5849 5850 5851 5851 5852 5853 5854 5855 5856 5857 5858 5859 5860 5861 5862 5863 5864 5865 5866 5867 5867 5868 5868 5868 5868
5824 5826 5828 5829 5831 5833 5835 5836 5838 5839 5840 5841 5843 5844 5845 5844 5845 5845 5846 5846 5846 5847 5848 5849 5850 5850 5851 5852 5853 5854 5855 5857 5858 5859 5860 5861 5862 5863 5863 5864 5865 5865 5866 5866
5820 5823 5824 5826 5827 5829 5831 5833 5833 5835 5836 5838 5839 5842 5841 5841 5841 5842 5842 5843 5843 5844 5845 5845 5846 5847 5847 5848 5849 5850 5852 5853 5855 5856 5857 5858 5859 5859 5860 5861 5862 5862 5862 5863
5816 5818 5820 5822 5824 5825 5827 5828 5830 5831 5832 5834 5835 5840 5837 5837 5837 5838 5838 5839 5839 5840 5841 5841 5842 5843 5844 5844 5846 5847 5848 5850 5851 5852 5853 5854 5855 5856 5857 5858 5858 5859 5859 5859
5811 5813 5816 5818 5821 5821 5822 5823 5825 5827 5828 5830 5832 5836 5833 5833 5834 5834 5834 5835 5836 5836 5837 5838 5838 5839 5840 5840 5842 5843 5844 5846 5847 5848 5849 5850 5851 5852 5853 5854 5854 5855 5855 5856
5805 5808 5811 5814 5815 5816 5817 5819 5820 5822 5824 5825 5827 5829 5830 5830 5830 5830 5831 5831 5832 5833 5833 5834 5834 5835 5836 5837 5838 5839 5840 5842 5843 5844 5845 5846 5847 5848 5849 5850 5851 5851 5852 5852
5800 5802 5805 5807 5809 5811 5812 5814 5816 5817 5819 5821 5823 5824 5826 5826 5826 5826 5827 5827 5828 5829 5829 5830 5831 5831 5832 5833 5834 5835 5836 5837 5839 5840 5841 5842 5843 5844 5845 5846 5847 5847 5848 5848
5794 5797 5799 5801 5804 5805 5807 5809 5811 5812 5814 5816 5818 5820 5821 5821 5821 5822 5823 5823 5824 5825 5825 5826 5827 5827 5828 5828 5829 5830 5831 5833 5834 5835 5836 5837 5839 5840 5841 5842 5843 5843 5844 5844
5788 5791 5794 5796 5798 5799 5801 5805 5806 5808 5809 5811 5813 5816 5816 5816 5817 5818 5818 5819 5819 5820 5821 5821 5822 5822 5823 5824 5825 5826 5827 5828 5829 5830 5832 5833 5834 5835 5836 5837 5838 5839 5839 5840
5782 5785 5787 5789 5792 5793 5799 5799 5801 5802 5804 5806 5807 5809 5810 5811 5812 5813 5813 5814 5815 5816 5816 5817 5817 5818 5818 5819 5820 5821 5822 5823 5824 5825 5827 5828 5829 5831 5832 5832 5833 5834 5835 5835
5776 5779 5781 5783 5785 5787 5791 5793 5795 5797 5798 5800 5801 5803 5804 5806 5807 5808 5808 5809 5810 5811 5811 5812 5812 5813 5813 5814 5815 5816 5817 5818 5819 5820 5822 5823 5824 5826 5827 5827 5828 5829 5830 5830
5770 5772 5775 5777 5778 5781 5786 5787 5788 5791 5792 5794 5795 5797 5798 5800 5801 5803 5803 5804 5805 5805 5806 5807 5808 5808 5809 5809 5810 5811 5812 5813 5814 5815 5817 5818 5819 5821 5821 5822 5823 5824 5824 5825
5763 5765 5768 5770 5772 5775 5778 5780 5782 5785 5787 5788 5789 5790 5792 5794 5796 5797 5798 5798 5799 5800 5801 5802 5803 5804 5804 5805 5805 5806 5807 5808 5809 5810 5812 5813 5814 5815 5816 5817 5818 5819 5819 5820
5756 5759 5761 5763 5765 5770 5771 5773 5776 5778 5779 5781 5782 5784 5785 5787 5789 5790 5791 5792 5794 5795 5796 5797 5797 5798 5799 5800 5800 5801 5802 5803 5804 5805 5806 5808 5809 5810 5811 5812 5813 5813 5814 5814
5749 5752 5754 5757 5761 5762 5764 5766 5768 5770 5772 5774 5775 5777 5779 5780 5782 5784 5785 5786 5787 5788 5790 5791 5791 5793 5793 5794 5795 5796 5797 5798 5799 5800 5801 5802 5803 5804 5805 5806 5807 5808 5808 5809
5741 5744 5746 5749 5752 5754 5757 5759 5761 5763 5765 5767 5769 5771 5772 5774 5775 5777 5778 5779 5781 5782 5783 5784 5785 5786 5787 5788 5789 5790 5791 5792 5794 5795 5796 5797 5798 5799 5800 5801 5802 5802 5803 5803
5733 5736 5738 5741 5744 5747 5750 5752 5754 5756 5758 5760 5762 5764 5766 5767 5769 5770 5771 5773 5774 5775 5776 5778 5779 5780 5781 5782 5783 5784 5785 5786 5788 5789 5790 5791 5792 5793 5794 5795 5796 5797 5798 5798
5725 5728 5731 5734 5737 5739 5742 5744 5747 5749 5751 5753 5755 5757 5759 5760 5762 5763 5764 5766 5767 5768 5770 5771 5772 5773 5775 5776 5777 5778 5779 5780 5782 5783 5784 5786 5787 5788 5789 5790 5790 5791 5792 5792
Wind_Speed
9 10 10 9 10 10 10 11 11 11 10 10 11 11 11 10 11 11 10 10 10 11 11 11 11 10 10 10 10 10 10 9 9 8 8 7 7 6 6 6 5 4 4 4
10 10 10 10 10 10 10 11 10 11 11 11 10 11 11 11 11 10 10 10 11 11 11 11 11 11 10 10 10 10 10 10 9 9 8 8 7 7 6 6 6 5 5 5
11 11 11 11 11 11 11 11 10 10 11 11 11 11 11 11 11 11 10 10 10 11 11 11 11 12 11 11 11 10 10 10 10 10 9 8 8 7 7 7 6 6 5 5
12 12 12 12 12 11 11 11 11 10 11 11 11 11 11 11 11 11 11 10 11 11 11 11 12 12 12 12 12 12 11 11 10 10 10 9 8 8 7 7 6 6 5 5
12 12 12 12 12 11 11 11 10 10 11 11 11 11 10 10 10 10 11 11 11 12 12 12 12 12 12 13 12 12 11 11 11 11 11 10 10 9 8 8 7 6 5 6
12 12 12 12 12 11 11 11 11 11 11 12 11 11 11 11 10 10 11 11 12 13 13 12 12 12 12 13 13 13 12 12 12 12 12 12 11 11 10 9 8 8 7 7
12 13 12 12 12 12 11 11 11 11 12 12 11 12 11 11 11 10 11 11 13 13 13 13 13 13 13 13 13 13 13 13 13 12 12 12 12 12 11 10 10 9 9 9
13 13 14 13 13 12 12 12 12 12 12 12 12 12 11 11 11 11 11 12 13 13 13 13 14 13 14 14 14 14 14 14 14 13 12 12 12 12 12 11 11 10 10 10
14 14 14 14 14 13 13 13 13 13 13 13 13 12 12 11 11 12 12 12 13 13 14 14 14 15 15 15 15 15 15 15 15 14 13 13 13 13 13 12 11 11 10 10
16 16 15 14 14 14 14 14 14 14 14 14 14 13 13 13 12 12 13 13 13 13 13 14 15 15 15 15 15 16 16 16 15 15 14 13 13 13 13 13 12 12 11 12
16 17 16 16 15 15 15 15 15 14 15 14 14 14 13 13 13 13 14 14 14 13 14 14 15 15 15 16 16 15 16 16 16 15 15 14 14 14 14 13 13 13 13 13
16 17 17 17 16 16 16 16 15 15 15 15 14 14 13 13 13 13 14 14 14 14 14 15 15 15 15 16 16 16 16 16 16 16 16 16 15 15 15 14 14 14 14 14
17 18 18 18 17 18 17 17 16 15 15 15 14 13 12 12 13 13 14 14 14 13 13 14 15 15 15 16 16 16 17 17 17 17 17 16 16 16 16 15 15 14 14 14
20 20 20 19 18 18 19 19 18 17 17 16 15 14 13 12 12 13 14 14 14 14 14 13 14 15 15 15 16 16 17 17 17 17 17 16 16 16 16 15 15 15 15 15
21 21 21 21 21 20 20 20 19 19 17 17 16 15 14 14 14 14 14 15 15 15 16 15 14 14 16 16 16 17 17 17 17 17 18 17 16 17 16 16 15 15 15 15
22 22 22 22 22 21 22 21 20 20 19 18 17 16 15 15 15 15 15 15 15 15 15 15 15 15 15 17 17 18 18 18 18 18 18 18 18 17 17 16 15 16 16 15
22 22 22 23 22 23 23 21 20 20 20 19 18 16 16 16 16 16 15 15 15 15 15 16 15 15 15 15 16 17 18 19 20 19 19 18 17 17 17 17 16 16 16 16
23 22 22 23 24 25 23 22 22 21 20 20 19 18 18 18 17 17 17 17 17 16 16 16 16 16 15 15 16 17 18 18 18 18 19 19 18 18 18 17 17 17 17 17
24 24 23 23 25 25 24 22 22 23 22 21 20 19 19 19 18 18 18 17 17 17 17 16 16 16 16 16 16 17 18 18 18 18 19 19 19 19 19 19 19 19 18 17
26 25 25 25 26 26 24 23 22 23 22 21 21 20 20 20 20 19 19 19 18 17 17 17 16 16 16 16 16 17 18 18 18 19 19 19 20 20 20 20 20 19 19 18
26 26 26 26 26 25 24 24 23 24 23 22 22 21 21 22 21 20 20 20 19 18 18 18 17 17 16 16 17 17 16 16 17 18 18 19 19 19 19 19 19 19 19 19
26 26 26 26 26 24 24 24 24 23 23 23 23 22 22 23 22 21 21 21 20 19 19 19 18 18 17 17 17 18 17 17 17 17 17 18 19 19 19 19 19 18 18 19
27 26 26 26 25 24 24 23 23 23 23 23 23 23 23 23 23 22 22 22 22 21 20 20 19 19 19 18 18 18 19 19 19 18 18 18 18 19 19 19 18 18 18 18
28 28 27 27 26 25 24 24 23 22 22 22 23 23 23 23 23 23 23 22 22 21 21 20 20 20 20 20 19 19 19 19 20 20 19 18 18 19 18 18 18 18 18 19
27 28 27 27 26 26 25 25 24 23 23 23 23 23 23 22 22 22 23 22 22 21 21 21 21 21 21 20 21 21 20 20 20 20 20 19 19 19 19 18 18 18 18 18
27 27 27 27 27 27 26 26 25 24 24 24 23 23 24 23 23 22 22 21 21 21 22 22 21 22 21 21 20 21 21 21 21 20 20 20 19 19 19 19 19 19 19 20
Wind_Direction
241 239 239 240 238 236 230 232 234 236 237 237 236 238 241 241 241 242 242 242 240 238 235 235 238 236 234 233 232 231 233 234 233 235 233 234 234 234 240 248 251 248 250 256
241 241 239 235 234 234 234 238 237 237 238 238 240 243 244 245 245 242 242 243 239 239 240 236 234 233 233 232 232 232 231 233 233 232 231 231 230 232 240 242 246 250 252 256
240 241 237 234 233 235 238 237 239 239 239 240 244 246 246 247 246 242 242 245 242 239 237 235 235 235 234 232 233 234 234 234 232 230 229 228 233 238 239 241 247 252 251 251
241 235 232 233 233 232 234 235 238 237 238 239 242 244 245 244 245 244 244 244 243 241 240 239 238 236 235 236 236 234 234 233 232 231 231 234 237 239 240 243 250 257 254 251
240 234 230 229 228 228 231 235 239 241 242 243 243 243 244 244 245 245 244 244 242 242 244 243 242 240 237 238 238 235 235 234 233 233 234 236 238 240 241 243 250 253 252 253
239 234 230 225 227 229 232 233 237 242 243 244 245 247 245 245 246 246 244 244 241 241 243 244 242 240 239 240 239 238 237 236 235 235 237 238 239 238 241 246 249 252 252 254
241 237 233 229 229 231 232 232 238 242 243 246 244 247 247 246 246 246 247 247 244 243 243 243 242 240 240 241 241 241 239 237 238 237 239 241 240 240 242 246 249 252 256 259
240 239 235 234 233 234 233 234 237 242 247 249 246 247 248 247 245 247 250 252 248 246 246 245 244 242 242 243 243 242 241 238 238 239 241 242 242 242 243 246 250 254 259 262
239 240 238 236 235 235 235 235 237 243 247 250 249 245 245 247 248 247 250 254 253 248 245 244 244 244 245 246 247 243 241 239 237 238 241 242 243 244 245 247 251 254 257 261
236 239 238 236 234 233 235 237 239 242 247 248 247 245 247 249 251 251 250 251 251 248 248 245 245 246 247 248 246 242 239 239 238 237 240 242 244 245 246 246 250 253 255 257
236 236 238 239 238 236 237 238 241 245 245 246 248 248 250 253 252 251 250 250 250 249 249 247 247 248 249 248 245 243 238 240 239 238 240 243 245 247 247 248 251 253 254 256
237 235 237 239 240 238 239 242 243 245 246 247 248 250 252 255 254 254 252 251 252 252 253 250 248 248 248 248 246 244 242 241 240 241 242 244 245 246 246 248 252 254 255 255
237 236 236 239 240 238 239 241 243 245 246 247 247 250 252 256 255 255 255 253 252 253 254 252 250 250 249 247 245 245 244 242 242 244 244 244 245 245 246 249 253 256 258 258
238 238 237 239 242 241 241 242 244 245 246 248 247 249 250 254 255 254 254 254 252 251 255 257 254 251 251 249 246 244 245 243 243 244 246 246 247 246 247 248 252 255 258 260
238 239 240 240 240 243 243 243 244 244 246 247 246 247 249 252 252 252 252 254 253 253 256 259 259 255 253 250 246 244 244 243 244 246 248 246 246 246 246 248 251 255 257 260
240 238 239 241 241 244 244 244 244 244 244 246 247 247 248 251 252 251 252 253 253 254 256 259 260 260 256 251 247 244 245 246 246 248 248 246 245 246 247 250 252 255 258 261
242 239 239 241 241 243 245 244 246 246 247 249 248 248 248 251 251 251 252 254 255 255 256 259 259 260 256 252 249 248 249 249 249 248 245 244 245 247 248 251 253 256 258 261
241 239 240 243 243 244 245 244 244 246 247 248 248 247 249 251 253 252 252 252 254 255 257 257 257 259 257 253 251 249 249 249 249 248 246 245 245 247 250 251 253 256 259 262
241 240 241 242 245 246 245 244 244 245 247 249 249 247 249 251 252 253 253 253 255 255 256 255 256 257 256 254 252 249 247 246 247 247 246 246 246 247 250 252 255 257 259 261
242 241 242 243 245 247 247 246 245 246 247 248 249 248 248 251 253 253 254 254 255 255 255 254 254 255 257 254 252 250 245 244 245 246 247 248 247 250 252 255 259 260 259 259
244 243 242 243 245 247 247 247 245 246 247 247 248 250 250 252 253 253 253 256 257 257 256 255 255 256 256 256 253 250 248 246 245 245 246 248 249 252 254 256 258 259 259 259
242 244 243 243 244 245 245 245 244 244 245 247 249 250 251 251 252 252 253 255 257 258 257 255 254 255 255 257 254 252 251 250 249 248 247 249 250 251 253 254 256 257 256 259
241 242 242 243 244 244 243 244 244 245 246 247 248 248 249 251 251 251 252 254 256 257 257 254 254 254 255 257 255 255 252 252 251 250 251 253 253 252 254 255 255 255 256 260
241 242 243 243 242 241 241 242 243 245 246 247 248 249 249 249 250 250 252 254 254 255 255 253 253 253 254 255 255 254 253 252 250 249 251 252 252 252 253 255 256 258 260 263
242 243 242 242 241 241 241 242 243 242 244 247 248 249 249 250 251 252 253 253 254 254 253 252 253 253 254 255 254 252 252 252 250 249 249 250 249 250 252 254 257 259 262 265
240 241 242 243 242 241 240 242 243 243 245 247 249 249 250 250 251 252 251 251 252 253 253 252 252 253 253 253 253 252 250 250 249 249 250 251 251 251 252 255 257 260 262 264